Weather in Khrushchevo

Russia / Ryazan Oblast     54°10′41″N   40°00′03″E
temp.,
°C
wind,
m/s
gust,
m/s
humid.,
%
clouds,
%
prec.,
mm/h
press.,
hPa
HPBL,
m
25 february, thu
thu2500:00−15ssw5995100 0.4 1031362
03:00−14ssw61194100 0.6 1028365
06:00−12ssw61095100 1.3 1024379
09:00−8sw81493100 3.6 1019531
12:00+1wsw71598100 1.7 1015481
15:00+2w614100100 1.9 1013388
18:00+2nw61399100 0.0 1013344
21:00+1wnw5999100 0.0 1014255
26 february, fri
fri2600:00+1wnw4999100 0.0 1014236
03:00+2w4999100 0.1 1013205
06:00+2w51199100 0.3 1011273
09:00+2wsw612100100 0.8 1010286
12:00+2wsw614100100 0.1 1008406
15:00+2w714100100 0.3 1006410
18:00+2w71699100 0.2 1004489
21:00+2w7168992 0.3 1005698
27 february, sat
sat2700:00+1w7158896 0.0 1003694
03:000w6158984 0.0 1003504
06:00+1w7149054 0.0 1001668
09:00+1w7149677 0.1 1001674
12:00+1wnw8149893 0.1 1001734
15:00−4nnw8128997 1.1 1003828
18:00−8nnw51190100 0.0 1006583
21:00−10n4119199 0.1 1010476
28 february, sun
sun2800:00−11nnw5119283 0.0 1011454
03:00−12nnw4109488 0.0 1014387
06:00−13nnw499589 0.0 1015250
09:00−13nnw599382 0.0 1017420
12:00−10nnw479094 0.0 1018509
15:00−8nnw479097 0.1 1019618
18:00−9nnw3694100 0.1 1020136
21:00−11n339689 0.1 102254
1 march, mon
mon100:00−11n339695 0.1 102468
03:00−12nnw239585 0.1 102522
06:00−11nw239693 0.0 102622
09:00−9wnw239572 0.0 102678
12:00−5w469320 0.0 1025323
15:00−2wsw5109158 0.0 1023472
18:00−1w61294100 0.1 1021586
21:00−1w61293100 0.2 1019504